アラン-リゴー彗星

49P/Arend-Rigaux (2025)

English version
Home page
Updated on September 10, 2024

---------------------------------------------------------------------

・ プロフィール

・ 写真集

・ 軌道要素

Epoch 2024 Mar. 31.0 TT = JDT 2460400.5
T 2025 Apr. 10.65620 TT                                 Rudenko
q   1.4315524            (2000.0)            P               Q
n   0.14618309     Peri.  332.93557     -0.05203377     -0.95676860
a   3.5689294      Node   118.79375     +0.96514032     -0.12178049
e   0.5988846      Incl.   19.05832     +0.25650856     +0.26412756
P   6.74
>From 3462 observations 2004 June 24-2024 Apr. 23, mean residual 0".6.
     Nongravitational parameters A1 = -0.03, A2 = -0.0003.

・ 星図

・ 光度変化

        H = 13.5  G = 0.15                       [    ,-102]  (              〜2024年12月29日)
        m1 = 8.0 + 5 logΔ + 30.0 log r(t - 10)  [-102, 109]  (2024年12月29日〜2025年 7月28日)
        H = 13.5  G = 0.15                       [ 109,    ]  (2025年 7月28日〜              )

---------------------------------------------------------------------

軌道要素はM.P.E.C. 2024-J304に掲載されたものです。
星図はステラナビゲータ Ver.10 (アストロアーツ) で作成したものです。
光度グラフはComet for Windowsで作成したものです。

---------------------------------------------------------------------

Copyright(C) Seiichi Yoshida (comet@aerith.net). All rights reserved.